STARLINK-35307, 66013

Orbit data source: Space-Track

STARLINK-35307, 66013 is a payload satellite owned by SpaceX/Seattle (US) in LEO that was launched on Thu, 16 Oct 2025 UTC via an FALCON 9 launch vehicle from the Air Force Eastern Test Range (AFETR). Payload-class satellites include a variety of spacecraft equipped with specific instruments for various scientific and technological missions. These include communications satellites like Starlink; space stations such as the ISS; scientific satellites like the Hubble; Earth observation satellites from companies like Planet Labs, Umbra, and HawkEye 360; GPS; miniature CubeSats for education and research; and military/defense satellites.

Loading next visibility...
Identifier
66013, 2025-232J
Orbit
LEO
Country
Flag of USUS
Related business
Manufacturer
SpaceX/Seattle
Mission
Operational Commercial Communications
Bus & Motor
STARLINK V2MO, Unknown motor
Mass
575 kg wet, ~530 kg dry
Launch date (UTC)
2025-10-16 (8 months ago)
Launch vehicle
FALCON 9
Launch site
Air Force Eastern Test Range (AFETR)
Object type
Payload
Rocket body
Debris
Shape & HBR
Box + 2 Pan, 17.7 m
Radar Cross Section
36.964 m², Large (>1 m²)

Expand to show TLE details & history
Last TLE update: 23 hours ago

TLE from 23 hours ago
0 STARLINK-35307
1 66013U 25232J   26170.91366187  .00030693  00000-0  91642-3 0  9993
2 66013  53.1600 348.5878 0001146  85.0841 275.0292 15.34379597 39095
Epoch: 2026-06-19T21:55Z
TLE epoch observation values (Epoch: 2026-06-19T21:55:40.385Z)
Latitude
-0.00006°
Longitude
111.53367°
Altitude
463.597 km
Speed
7.636 km/s
True Right ascension
23h 14m 21s
True Declination
0° 00' 00"
Sunlit
Object was in daylight at epoch
Visualization orbit readout
Latitude
Unknown
Longitude
Unknown
Altitude
Unknown
Speed
Unknown
Apparent Right ascension
Unknown
Apparent Declination
Unknown
Sunlit
N/A
Visualization observer readout
Local Sidereal Time
07:21:45
Azimuth
Unknown
Elevation
Unknown
Doppler factor
Unknown
Orbital elements
Apogee altitude
463.805 km
Perigee altitude
462.237 km
Semi-major axis
6,841.158 km
Eccentricity
0.00011
Inclination
53.16°
RAAN
348.5878°
Arg. of periapsis
85.0841°
True anomaly
275.01612°
Mean anomaly
275.0292°
Eccentric anomaly
275.02266°
Mean motion
3.83574 °/min
Orbital period
93.85 mins
BSTAR
0.00091642
Loading maneuver chart data...
Computing Atmospheric mass density...
Loading historical data...
Loading historical data...
Loading historical data...
Loading historical data...
Loading historical data...
Loading historical data...
Loading historical data...

Documentation

Showing up to 5 results
|